Flag for Germany Weather past 2 weeks in Berlin, Berlin, Germany

Now
73 °F

Mild.


Feels Like: 76 °F
Forecast: 54 / 69 °F
Wind: 2 mph from Southwest

Location: Berlin-Tempelhof

Current Time: Aug 28, 2014 at 3:22:32 PM

Latest Report: Aug 28, 2014 at 3:00 PM


Visibility: N/A

Pressure: 30.05 "Hg

Humidity: 29%

Dew point: 39 °F

Location of BerlinLocation

Historic Weather in Berlin — Graph

°F

Berlin temperature yesterday

Maximum temperature yesterday: 70 °F (at 5:00 PM)
Minimum temperature yesterday: 49 °F (at 4:00 AM)
Average temperature yesterday: 60 °F

Past Weeks' High & Low Weather Summary

 TemperatureHumidityPressure
High76 °F (Aug 13, 3:00 PM)93% (Aug 14, 1:00 AM)30.08 "Hg (Aug 14, 1:00 AM)
Low48 °F (Aug 25, 6:00 AM)31% (Aug 28, 2:00 PM)29.61 "Hg (Aug 18, 4:00 PM)
Average61 °F65%29.87 "Hg
* Reported Aug 13 2:00 PM — Aug 28 2:00 PM, Berlin, Weather by CustomWeather, © 2014

Note: Actual official high and low records may vary slightly from our data, if they occured in-between our weather recording intervals... More about our weather records

Advertising

Berlin weather history for previous 24 hours

 ConditionsComfort  
Time TempWeatherWind HumidityBarometerVisibility
2:00 PM
Aug 28
74 °FMild.3 mph31%30.05 "HgN/A
1:00 PM69 °FMild.5 mph35%30.07 "HgN/A
12:00 PM71 °FMild.3 mph38%30.07 "HgN/A
11:00 AM69 °FMild.2 mph44%30.08 "HgN/A
10:00 AM65 °FMild.2 mph54%30.08 "HgN/A
9:00 AM60 °FCool.2 mph66%30.08 "HgN/A
8:00 AM54 °FCool.1 mph80%30.07 "HgN/A
7:00 AM50 °FCool.1 mph87%30.07 "HgN/A
6:00 AM49 °FCool.1 mph87%30.06 "HgN/A
5:00 AM49 °FCool.1 mph84%30.06 "HgN/A
4:00 AM51 °FCool.1 mph78%30.05 "HgN/A
3:00 AM52 °FCool.1 mph79%30.05 "HgN/A
2:00 AM54 °FCool.1 mph74%30.05 "HgN/A
1:00 AM54 °FCool.1 mph72%30.05 "HgN/A
12:00 AM57 °FCool.1 mph67%30.04 "HgN/A
10:00 PM
Aug 27
61 °FRefreshingly cool.2 mph56%30.03 "HgN/A
9:00 PM64 °FMild.2 mph50%30.01 "HgN/A
8:00 PM66 °FMild.6 mph43%30.00 "HgN/A
7:00 PM69 °FMild.7 mph39%29.98 "HgN/A
6:00 PM70 °FMild.6 mph34%29.97 "HgN/A
5:00 PM70 °FMild.7 mph32%29.97 "HgN/A
4:00 PM69 °FMild.6 mph39%29.98 "HgN/A
3:00 PM70 °FMild.10 mph43%29.97 "HgN/A
Weather by CustomWeather, © 2014

See weather overviewHow to use our weather pages